User: anonymous   Login
Location: Karaa?a�
(36.7158°N, 30.4165°E)
Time: 01:52:35
(UTC+00:00)
Language:

IRIDIUM 104 - Orbit

View from above orbital plane
View from above orbital plane
View from above satellite
View from above satellite

Ground track
Ground track

The orbit data is extracted from the following two-line orbital elements,

1 41922U 17003F   20192.78085075  .00000043  00000-0  84051-5 0  9993
2 41922  86.3973 274.1077 0002142 102.9714 257.1721 14.34216019182611
Epoch (UTC): 10 July 2020 18:44:25
Eccentricity: 0.0002142
inclination: 86.3973°
perigee height: 776 km
apogee height: 779 km
right ascension of ascending node: 274.1077°
argument of perigee: 102.9714°
revolutions per day: 14.34216019
mean anomaly at epoch: 257.1721°
orbit number at epoch: 18261

The dashed part of the orbit path shows where the satellite is in the earth's shadow,  

DLR